Weather in Royal Tunbridge Wells

United Kingdom     51°07′57″N   0°15′45″E
temp.,
°C
wind,
m/s
gust,
m/s
humid.,
%
clouds,
%
prec.,
mm/h
press.,
hPa
HPBL,
m
13 may, thu
thu1301:00+8e41086100 0.0 1007280
04:00+9ese5895100 0.3 1006447
07:00+8se4793100 0.3 1006464
10:00+10se5679100 0.1 1006956
13:00+11sse667450 0.6 10061016
16:00+12s456540 0.3 10061261
19:00+12se34745 0.4 1006674
22:00+8ne2290100 0.1 100737
14 may, fri
fri1401:00+8nne2696100 3.4 1007250
04:00+7n4799100 1.8 1007252
07:00+7n4896100 2.5 1008334
10:00+10nne5687100 0.1 1009687
13:00+11nne347895 0.2 1009733
16:00+13nne226978 0.5 10081087
19:00+12ese238281 1.4 1008190
22:00+9ssw2595100 0.4 1008147
15 may, sat
sat1501:00+7s2496100 0.4 100685
04:00+7sse2698100 0.0 1004163
07:00+7ssw61094100 1.7 1003614
10:00+7se71197100 0.4 1001671
13:00+13sw8118339 1.4 9991382
16:00+13wsw8118330 2.4 9991363
19:00+11wsw6118971 4.8 1000600
22:00+8sw6139568 1.2 1001447
16 may, sun
sun1601:00+6ssw37975 1.2 1000162
04:00+6ssw3797100 0.0 999143
07:00+8s2799100 3.1 998380
10:00+9ssw51095100 1.8 997667
13:00+11sw699274 4.4 997893
16:00+10ssw71195100 2.1 995673
19:00+11nw5793100 4.4 995500
22:00+8wnw3795100 0.4 998132
17 may, mon
mon1701:00+8wnw489772 0.3 998205
04:00+8wnw4997100 0.0 1000315
07:00+8nw5996100 0.3 1002456
10:00+10nw6883100 0.0 1004675
13:00+13wnw677192 0.6 10061382
16:00+12wnw697986 0.9 10081077
19:00+11nw6108521 1.8 1009720
22:00+8wnw5119181 0.1 1012464